FW4606 Weather Reports


time (UTC)temp
C
wind
direction
speed
KPH
gust
KPH
rain 1hr
cm
rain 24hr
cm
rain mn
cm
humidity
%
barometer
mb
20260510073018 0 15 0.0 0.0 0.00 0.10 0.00 89 1015.7
20260510072517 0 15 0.0 0.0 0.00 0.10 0.00 88 1015.8
20260510072247 0 15 0.0 0.0 0.00 0.10 0.00 88 1015.8
20260510071746 0 15 0.0 0.0 0.00 0.10 0.00 87 1015.8
20260510071013 1 15 0.0 0.0 0.00 0.10 0.00 86 1015.8
20260510070514 1 15 0.0 0.0 0.00 0.10 0.00 85 1015.8
20260510070016 1 15 0.0 0.0 0.00 0.10 0.00 86 1015.8
20260510065517 1 15 0.0 0.0 0.00 0.10 0.00 86 1015.8
20260510065015 1 15 0.0 0.0 0.00 0.10 0.00 85 1015.7
20260510064512 1 15 0.0 0.0 0.00 0.10 0.00 86 1015.7
20260510064009 1 15 0.0 0.0 0.00 0.10 0.00 86 1015.7
20260510063740 1 15 0.0 0.0 0.00 0.10 0.00 85 1015.7
20260510063010 1 14 0.0 0.0 0.00 0.10 0.00 86 1015.7
20260510062506 1 15 0.0 0.0 0.00 0.10 0.00 84 1015.6
20260510062004 2 15 0.0 0.0 0.00 0.10 0.00 84 1015.7
20260510061509 2 15 0.0 0.0 0.00 0.10 0.00 83 1015.6
20260510061504 2 15 0.0 0.0 0.00 0.10 0.00 83 1015.7
20260510060505 2 15 0.0 0.0 0.00 0.10 0.00 82 1015.6
20260510060005 3 15 0.0 0.0 0.00 0.10 0.00 81 1015.6
20260510055504 3 15 0.0 0.0 0.00 0.10 0.00 81 1015.6
20260510055005 3 15 0.0 0.0 0.00 0.10 0.00 79 1015.5
20260510054506 3 14 0.0 0.0 0.00 0.10 0.00 77 1015.5
20260510054001 3 15 0.0 0.0 0.00 0.10 0.00 74 1015.4
20260510053500 3 15 0.0 0.0 0.00 0.10 0.00 74 1015.4
20260510053233 3 14 0.0 0.0 0.00 0.10 0.00 75 1015.4
20260510052501 3 15 0.0 0.0 0.00 0.10 0.00 75 1015.4
20260510052001 3 15 0.0 0.0 0.00 0.10 0.00 74 1015.4
20260510051731 3 15 0.0 0.0 0.00 0.10 0.00 74 1015.4
20260510051002 3 15 0.0 0.0 0.00 0.10 0.00 74 1015.4
20260510050731 3 15 0.0 0.0 0.00 0.10 0.00 70 1015.4
20260510050232 3 15 0.0 0.0 0.00 0.10 0.00 67 1015.3
20260510045456 3 15 0.0 0.0 0.00 0.10 0.10 66 1015.2
20260510044950 4 15 0.0 0.0 0.00 0.10 0.10 65 1015.2
20260510044443 5 15 0.0 0.0 0.00 0.10 0.10 64 1015.2
20260510043938 5 15 0.0 0.0 0.00 0.10 0.10 64 1015.2
20260510043432 5 15 0.0 0.0 0.00 0.10 0.10 64 1015.2
20260510042926 6 15 0.0 0.0 0.00 0.10 0.10 63 1015.1
20260510042420 6 15 0.0 0.0 0.00 0.10 0.10 61 1015.1
20260510042144 6 15 0.0 0.0 0.00 0.10 0.10 62 1015.1
20260510041408 5 15 0.0 0.0 0.00 0.10 0.10 62 1015.1
20260510040901 5 15 0.0 0.0 0.00 0.10 0.10 61 1015.0
20260510040356 6 15 0.0 0.0 0.00 0.10 0.10 60 1015.1
20260510035850 6 14 0.0 0.0 0.00 0.10 0.10 61 1015.1
20260510035343 6 15 0.0 0.0 0.00 0.10 0.10 58 1015.1
20260510034837 6 15 0.0 0.0 0.00 0.10 0.10 58 1015.1
20260510034332 7 15 0.0 0.0 0.00 0.10 0.10 56 1015.0
20260510034057 7 15 0.0 0.0 0.00 0.10 0.10 55 1015.0
20260510033320 8 15 0.0 0.0 0.00 0.10 0.10 52 1015.0
20260510032814 8 15 0.0 0.0 0.00 0.10 0.10 51 1014.9
20260510032308 8 15 0.0 0.0 0.00 0.10 0.10 50 1014.8
20260510032034 8 15 0.0 0.0 0.00 0.10 0.10 50 1014.7
20260510031526 8 15 0.0 0.0 0.00 0.10 0.10 50 1014.7
20260510030750 8 16 0.0 0.0 0.00 0.10 0.10 51 1014.6
20260510030244 8 19 0.0 0.0 0.00 0.10 0.10 50 1014.5
20260510030010 8 20 0.0 1.6 0.00 0.10 0.10 51 1014.4
20260510025232 8 20 0.0 1.6 0.00 0.10 0.10 50 1014.3
20260510024725 8 20 0.0 0.0 0.00 0.10 0.10 51 1014.2
20260510024219 7 72 0.0 0.0 0.00 0.10 0.10 52 1014.1
20260510023714 8 72 0.0 0.0 0.00 0.10 0.10 52 1014.0
20260510023208 8 72 0.0 0.0 0.00 0.10 0.10 52 1013.8
20260510022701 8 72 0.0 0.0 0.00 0.10 0.10 53 1013.6
20260510022156 8 72 0.0 0.0 0.00 0.10 0.10 51 1013.5
20260510021650 8 72 0.0 0.0 0.00 0.10 0.10 51 1013.4
20260510021144 8 72 0.0 0.0 0.00 0.10 0.10 51 1013.4
20260510020638 9 126 0.0 0.0 0.00 0.10 0.10 50 1013.1
20260510020132 9 125 0.0 0.0 0.00 0.10 0.10 47 1013.0
20260510015625 10 126 0.0 1.6 0.00 0.10 0.10 45 1012.9
20260510015120 10 231 0.0 1.6 0.00 0.10 0.10 44 1012.8
20260510014614 11 105 0.0 1.6 0.00 0.10 0.10 44 1012.7
20260510014338 11 126 0.0 1.6 0.00 0.10 0.10 42 1012.6
20260510013833 11 125 0.0 1.6 0.00 0.10 0.10 41 1012.5
20260510013056 12 3 0.0 1.6 0.00 0.10 0.10 39 1012.4
20260510012821 12 11 0.0 1.6 0.00 0.10 0.10 38 1012.4
20260510012050 12 18 0.0 4.8 0.00 0.10 0.10 38 1012.3
20260510011547 12 34 0.0 4.8 0.00 0.10 0.10 37 1012.1
20260510011047 12 339 0.0 3.2 0.00 0.10 0.10 39 1012.1
20260510010818 12 150 0.0 4.8 0.00 0.10 0.10 37 1012.0
20260510010048 12 132 0.0 6.4 0.00 0.10 0.10 38 1012.0
20260510005548 13 210 0.0 8.0 0.00 0.10 0.10 39 1011.9
20260510005047 13 155 0.0 12.9 0.00 0.10 0.10 36 1011.8
20260510004547 13 304 0.0 12.9 0.00 0.10 0.10 38 1011.7
20260510004319 13 122 0.0 6.4 0.00 0.10 0.10 38 1011.7
20260510003818 14 136 1.6 6.4 0.00 0.10 0.10 37 1011.6
20260510003318 14 288 1.6 6.4 0.00 0.10 0.10 35 1011.6
20260510002547 15 0 1.6 9.7 0.00 0.10 0.10 36 1011.5
20260510002047 15 158 1.6 9.7 0.00 0.10 0.10 35 1011.4
20260510001547 15 124 1.6 8.0 0.00 0.10 0.10 35 1011.5
20260510001047 15 49 1.6 11.3 0.00 0.10 0.10 34 1011.4
20260510000547 15 141 1.6 11.3 0.00 0.10 0.10 33 1011.2
20260510000319 15 106 1.6 11.3 0.00 0.10 0.10 33 1011.1
20260509235543 15 4 1.6 9.7 0.00 0.10 0.10 31 1011.2
20260509235036 16 80 1.6 9.7 0.00 0.10 0.10 30 1011.1
20260509234531 16 318 0.0 6.4 0.00 0.10 0.10 30 1011.1
20260509234255 16 5 0.0 9.7 0.00 0.10 0.10 31 1011.0
20260509233518 16 13 1.6 9.7 0.00 0.10 0.10 29 1011.0
20260509233244 16 23 1.6 6.4 0.00 0.10 0.10 29 1010.9
20260509232506 16 41 1.6 6.4 0.00 0.10 0.10 29 1010.9
20260509232232 16 66 1.6 6.4 0.00 0.10 0.10 33 1010.8
20260509231457 16 7 1.6 9.7 0.00 0.10 0.10 30 1010.7
20260509231451 16 97 1.6 9.7 0.00 0.10 0.10 31 1010.7
20260509230442 16 5 1.6 16.1 0.00 0.10 0.10 32 1010.8
20260509225936 17 309 1.6 16.1 0.00 0.10 0.10 31 1010.5
20260509225430 16 351 1.6 9.7 0.00 0.10 0.10 31 1010.7
20260509224923 16 339 1.6 9.7 0.00 0.10 0.10 29 1010.6
20260509224418 17 224 1.6 9.7 0.00 0.10 0.10 29 1010.7
20260509223912 16 239 1.6 8.0 0.00 0.10 0.10 33 1010.5
20260509223407 16 22 1.6 9.7 0.00 0.10 0.10 31 1010.5
20260509222900 16 125 1.6 9.7 0.00 0.10 0.10 32 1010.5
20260509222353 17 110 1.6 9.7 0.00 0.10 0.10 29 1010.5
20260509221848 17 117 1.6 9.7 0.00 0.10 0.10 32 1010.5
20260509221613 17 25 1.6 12.9 0.00 0.10 0.10 32 1010.5
20260509220835 17 120 1.6 12.9 0.00 0.10 0.10 34 1010.4
20260509220330 17 27 1.6 9.7 0.00 0.10 0.10 32 1010.4
20260509215824 17 224 1.6 8.0 0.00 0.10 0.10 35 1010.2
20260509215318 17 126 1.6 8.0 0.00 0.10 0.10 31 1010.3
20260509214812 17 160 3.2 11.3 0.00 0.10 0.10 37 1010.3
20260509214305 17 54 3.2 11.3 0.00 0.10 0.10 31 1010.3
20260509213759 17 139 1.6 8.0 0.00 0.10 0.10 31 1010.2
20260509213255 17 169 1.6 8.0 0.00 0.10 0.10 33 1010.2
20260509213250 17 4 1.6 9.7 0.00 0.10 0.10 30 1010.2
20260509212242 17 333 1.6 9.7 0.00 0.10 0.10 29 1010.1
20260509211735 18 1 1.6 9.7 0.00 0.10 0.10 30 1010.1
20260509211230 17 166 1.6 9.7 0.00 0.10 0.10 30 1010.1
20260509210724 17 259 1.6 12.9 0.00 0.10 0.10 32 1010.1
20260509210218 17 5 1.6 12.9 0.00 0.10 0.10 32 1010.0
20260509205711 17 100 1.6 12.9 0.00 0.10 0.10 31 1010.1
20260509205206 16 139 3.2 12.9 0.00 0.10 0.10 31 1009.9
20260509204702 17 345 1.6 11.3 0.00 0.10 0.10 30 1009.8
20260509204657 16 13 1.6 14.5 0.00 0.10 0.10 31 1009.9
20260509203918 17 162 1.6 14.5 0.00 0.10 0.10 31 1009.9
20260509203142 17 347 1.6 9.7 0.00 0.10 0.10 33 1009.8
20260509202636 17 333 1.6 9.7 0.00 0.10 0.10 32 1009.8
20260509202130 17 5 1.6 9.7 0.00 0.10 0.10 34 1009.7
20260509201624 16 329 1.6 6.4 0.00 0.10 0.10 35 1009.8
20260509201118 16 323 1.6 14.5 0.00 0.10 0.10 31 1009.6
20260509200612 16 351 3.2 14.5 0.00 0.10 0.10 34 1009.7
20260509200105 16 32 4.8 12.9 0.00 0.10 0.10 31 1009.7
20260509195600 17 149 4.8 14.5 0.00 0.10 0.10 31 1009.7
20260509195054 17 195 3.2 14.5 0.00 0.10 0.10 36 1009.5
20260509194548 16 162 1.6 11.3 0.00 0.10 0.10 38 1009.6
20260509194041 16 7 1.6 9.7 0.00 0.10 0.10 32 1009.5
20260509193536 17 89 1.6 9.7 0.00 0.10 0.10 33 1009.5
20260509193030 16 276 1.6 9.7 0.00 0.10 0.10 36 1009.2
20260509192524 16 333 1.6 9.7 0.00 0.10 0.10 38 1009.5
20260509192018 16 1 4.8 14.5 0.00 0.10 0.10 33 1009.2
20260509191515 16 333 3.2 14.5 0.00 0.10 0.10 33 1009.2
20260509191507 16 345 3.2 12.9 0.00 0.10 0.10 35 1009.1
20260509190731 16 113 3.2 12.9 0.00 0.10 0.10 38 1009.1
20260509185953 16 158 1.6 14.5 0.00 0.10 0.10 43 1009.2
20260509185448 16 104 3.2 14.5 0.00 0.10 0.10 34 1009.1
20260509184942 16 29 3.2 12.9 0.00 0.10 0.10 34 1009.0
20260509184436 16 207 1.6 12.9 0.00 0.10 0.10 36 1009.0
20260509183930 16 153 1.6 9.7 0.00 0.10 0.10 37 1008.9
20260509183424 16 339 1.6 11.3 0.00 0.10 0.10 36 1008.9
20260509182918 16 335 1.6 14.5 0.00 0.10 0.10 37 1008.9
20260509182643 16 8 3.2 14.5 0.00 0.10 0.10 35 1008.8
20260509181906 16 0 4.8 14.5 0.00 0.10 0.10 39 1008.9
20260509181632 16 221 3.2 14.5 0.00 0.10 0.10 41 1008.6
20260509180854 16 302 1.6 12.9 0.00 0.10 0.10 41 1008.8
20260509180347 15 347 1.6 8.0 0.00 0.10 0.10 42 1008.9
20260509175842 15 345 3.2 9.7 0.00 0.10 0.10 43 1008.9
20260509175336 15 78 3.2 11.3 0.00 0.10 0.10 39 1008.9
20260509175102 15 0 3.2 12.9 0.00 0.10 0.10 41 1008.8
20260509174324 15 122 1.6 12.9 0.00 0.10 0.10 44 1008.6
20260509173818 15 330 1.6 11.3 0.00 0.10 0.10 44 1008.7
20260509173312 15 197 1.6 11.3 0.00 0.10 0.10 46 1008.6
20260509173043 15 86 1.6 11.3 0.00 0.10 0.10 43 1008.6
20260509172545 15 17 1.6 11.3 0.00 0.10 0.10 40 1008.6
20260509171813 15 343 1.6 9.7 0.00 0.10 0.10 49 1008.6
20260509171312 14 149 1.6 8.0 0.00 0.10 0.10 48 1008.5
20260509170811 14 302 1.6 9.7 0.00 0.10 0.10 50 1008.5
20260509170308 14 80 1.6 12.9 0.00 0.10 0.10 48 1008.3
20260509165809 13 106 1.6 12.9 0.00 0.10 0.10 49 1008.3
20260509165540 14 339 1.6 9.7 0.00 0.10 0.10 46 1008.3
20260509164809 14 352 1.6 8.0 0.00 0.10 0.10 45 1008.3
20260509164542 13 22 1.6 6.4 0.00 0.10 0.10 50 1008.3
20260509163810 13 25 1.6 6.4 0.00 0.10 0.10 45 1008.3
20260509163309 13 27 1.6 8.0 0.00 0.10 0.10 47 1008.2
20260509162811 13 14 1.6 8.0 0.00 0.10 0.10 50 1008.1
20260509162312 13 43 1.6 9.7 0.00 0.10 0.10 48 1008.1
20260509161811 13 340 1.6 9.7 0.00 0.10 0.10 54 1008.0
20260509161544 12 135 1.6 8.0 0.00 0.10 0.10 52 1008.0
20260509160807 12 66 1.6 9.7 0.00 0.10 0.10 53 1008.0
20260509160532 13 4 1.6 9.7 0.00 0.10 0.10 53 1007.8
20260509155754 13 351 1.6 8.0 0.00 0.10 0.10 50 1007.7
20260509155249 13 91 1.6 8.0 0.00 0.10 0.10 57 1007.7
20260509154742 13 131 1.6 8.0 0.00 0.10 0.10 53 1007.6
20260509154237 13 311 1.6 6.4 0.00 0.10 0.10 56 1007.5
20260509154001 13 105 1.6 9.7 0.00 0.10 0.10 54 1007.4
20260509153458 13 356 1.6 12.9 0.00 0.10 0.10 52 1007.4
20260509152719 13 9 1.6 12.9 0.00 0.10 0.10 55 1007.3
20260509152213 13 133 1.6 8.0 0.00 0.10 0.10 59 1007.3
20260509151707 13 325 1.6 8.0 0.00 0.10 0.10 60 1007.2
20260509151438 12 105 1.6 6.4 0.00 0.10 0.10 62 1007.0
20260509151201 12 342 1.6 6.4 0.00 0.10 0.10 63 1007.0
20260509150148 12 27 1.6 11.3 0.00 0.10 0.10 62 1006.9
20260509145642 12 181 1.6 11.3 0.00 0.10 0.10 60 1006.9
20260509145137 12 58 1.6 6.4 0.00 0.10 0.10 64 1006.7
20260509144631 11 345 1.6 6.4 0.00 0.10 0.10 64 1006.7
20260509144355 11 356 1.6 8.0 0.00 0.10 0.10 65 1006.7
20260509143850 11 345 1.6 8.0 0.00 0.10 0.10 66 1006.6
20260509143113 11 20 1.6 6.4 0.00 0.10 0.10 68 1006.6
20260509142607 11 345 1.6 9.7 0.00 0.10 0.10 71 1006.5
20260509142100 10 356 3.2 9.7 0.00 0.10 0.10 71 1006.5
20260509141825 10 9 3.2 11.3 0.00 0.10 0.10 72 1006.4
20260509141046 10 356 3.2 12.9 0.00 0.10 0.10 75 1006.4
20260509140540 10 347 3.2 12.9 0.00 0.10 0.10 77 1006.4
20260509140039 10 13 3.2 11.3 0.00 0.10 0.10 80 1006.4
20260509135538 9 356 1.6 9.7 0.00 0.10 0.10 84 1006.3
20260509135041 9 13 1.6 6.4 0.00 0.10 0.10 91 1006.2
20260509134539 8 347 1.6 6.4 0.00 0.10 0.10 94 1006.2
20260509134039 8 352 1.6 6.4 0.00 0.10 0.10 96 1006.1
20260509133540 8 337 1.6 6.4 0.00 0.10 0.10 96 1006.1
20260509133039 8 74 0.0 6.4 0.00 0.10 0.10 96 1006.0
20260509132808 8 23 0.0 3.2 0.00 0.10 0.10 96 1006.0
20260509132659 8 32 0.0 4.8 0.00 0.10 0.10 96 1005.9
20260509131534 8 105 0.0 4.8 0.00 0.10 0.10 96 1005.8
20260509131032 8 110 0.0 4.8 0.00 0.10 0.10 96 1005.7
20260509130530 8 107 0.0 1.6 0.00 0.10 0.10 97 1005.5
20260509130032 8 351 0.0 1.6 0.00 0.10 0.10 97 1005.4
20260509125529 8 107 0.0 1.6 0.00 0.10 0.10 96 1005.3
20260509125031 8 127 0.0 1.6 0.00 0.10 0.10 96 1005.3
20260509124530 8 56 0.0 1.6 0.00 0.10 0.10 96 1005.2
20260509124028 8 100 0.0 1.6 0.00 0.10 0.10 97 1005.2
20260509123528 8 205 0.0 3.2 0.00 0.10 0.10 97 1005.2
20260509123022 8 293 0.0 3.2 0.00 0.10 0.10 97 1005.1
20260509122516 8 23 0.0 1.6 0.00 0.10 0.10 97 1005.0
20260509122009 8 75 0.0 1.6 0.00 0.10 0.10 97 1004.8
20260509121504 8 116 0.0 3.2 0.00 0.10 0.10 96 1004.8
20260509120958 7 75 0.0 3.2 0.00 0.10 0.10 96 1004.7
20260509120454 7 114 0.0 4.8 0.00 0.10 0.10 96 1004.7
20260509115954 7 131 0.0 4.8 0.00 0.10 0.10 96 1004.6
20260509115723 8 160 0.0 4.8 0.00 0.10 0.10 96 1004.5
20260509115227 8 142 0.0 3.2 0.00 0.10 0.10 96 1004.4
20260509114454 8 162 0.0 3.2 0.00 0.10 0.10 96 1004.2
20260509113953 8 96 0.0 1.6 0.00 0.10 0.10 96 1004.2
20260509113454 7 155 0.0 1.6 0.00 0.10 0.10 96 1004.1
20260509112954 7 162 0.0 0.0 0.00 0.10 0.10 96 1004.0
20260509112457 7 162 0.0 0.0 0.03 0.10 0.10 96 1003.8
20260509112452 7 162 0.0 0.0 0.00 0.10 0.10 96 1003.9
20260509111454 7 162 0.0 0.0 0.03 0.10 0.10 95 1003.7
20260509110957 7 63 0.0 0.0 0.03 0.10 0.10 95 1003.5
20260509110451 7 62 0.0 0.0 0.05 0.10 0.10 95 1003.4
20260509105952 7 62 0.0 0.0 0.05 0.10 0.10 95 1003.3
20260509105452 8 64 0.0 0.0 0.05 0.10 0.10 95 1003.1
20260509105224 8 64 0.0 0.0 0.05 0.10 0.10 95 1003.1
20260509104451 8 63 0.0 0.0 0.05 0.10 0.10 95 1003.1
20260509103950 8 64 0.0 0.0 0.05 0.10 0.10 95 1003.1
20260509103452 8 63 0.0 0.0 0.08 0.10 0.10 95 1003.0
20260509102950 8 64 0.0 0.0 0.08 0.10 0.10 94 1002.9
20260509102450 8 63 0.0 0.0 0.08 0.10 0.10 94 1002.6
20260509101952 8 64 0.0 0.0 0.08 0.08 0.08 94 1003.0
20260509101720 8 315 0.0 0.0 0.08 0.08 0.08 94 1002.6
20260509100948 8 315 0.0 0.0 0.05 0.05 0.05 93 1002.7
20260509100722 8 314 0.0 0.0 0.05 0.05 0.05 93 1002.8
20260509095949 8 315 0.0 0.0 0.05 0.05 0.05 92 1002.7
20260509095449 8 314 0.0 0.0 0.05 0.05 0.05 92 1002.7
20260509094948 8 315 0.0 1.6 0.05 0.05 0.05 91 1002.6
20260509094719 8 315 0.0 1.6 0.05 0.05 0.05 90 1002.6
20260509093950 9 136 0.0 1.6 0.05 0.05 0.05 89 1002.7
20260509093450 9 140 0.0 1.6 0.03 0.03 0.03 86 1002.9
20260509093215 10 57 0.0 1.6 0.03 0.03 0.03 84 1003.0
20260509092445 10 68 0.0 6.4 0.03 0.03 0.03 82 1003.1
20260509091945 10 79 0.0 6.4 0.00 0.00 0.00 77 1003.2
20260509091445 11 1 0.0 3.2 0.00 0.00 0.00 73 1003.2
20260509090945 11 351 0.0 1.6 0.00 0.00 0.00 70 1003.1
20260509090446 11 16 0.0 1.6 0.00 0.00 0.00 67 1003.1
20260509085944 11 15 0.0 1.6 0.00 0.00 0.00 65 1002.8
20260509085444 11 15 0.0 1.6 0.00 0.00 0.00 64 1002.5
20260509084946 11 17 0.0 1.6 0.00 0.00 0.00 62 1002.6
20260509084442 11 18 0.0 3.2 0.00 0.00 0.00 62 1002.7
20260509083941 11 338 0.0 3.2 0.00 0.00 0.00 61 1002.8
20260509083712 11 50 0.0 3.2 0.00 0.00 0.00 60 1002.7
20260509082940 11 16 1.6 11.3 0.00 0.00 0.00 59 1002.7
20260509082440 11 25 1.6 11.3 0.00 0.00 0.00 59 1002.7
20260509081940 11 6 1.6 9.7 0.00 0.00 0.00 59 1002.7
20260509081442 11 39 1.6 9.7 0.00 0.00 0.00 60 1002.6
20260509080942 10 30 0.0 4.8 0.00 0.00 0.00 60 1002.6
20260509080442 10 321 0.0 6.4 0.00 0.00 0.00 60 1002.5
20260509075940 10 118 0.0 6.4 0.00 0.00 0.00 61 1002.5
20260509075440 9 187 0.0 1.6 0.00 0.00 0.00 61 1002.5
20260509074950 9 135 0.0 3.2 0.00 0.00 0.00 60 1002.4
20260509074941 9 136 0.0 1.6 0.00 0.00 0.00 62 1002.5
20260509073942 9 205 0.0 3.2 0.00 0.00 0.00 59 1002.2
20260509073440 9 126 0.0 3.2 0.00 0.00 0.00 61 1002.2
20260509073214 9 147 0.0 0.0 0.00 0.00 0.00 66 1002.0